Time,TemperatureF,DewpointF,PressureIn,WindDirection,WindDirectionDegrees,WindSpeedMPH,WindSpeedGustMPH,Humidity,HourlyPrecipIn,Conditions,Clouds,dailyrainin,SoftwareType,DateUTC
2013-04-23 00:02:00,60.3,48.1,30.02,SSE,168,0.0,0.0,64,0.00,,SCT110,0.00,VWS V14.01,2013-04-23 05:02:00,
2013-04-23 00:07:00,60.4,48.2,30.02,SSE,168,0.0,0.0,64,0.00,,SCT110,0.00,VWS V14.01,2013-04-23 05:07:00,
2013-04-23 00:12:00,60.4,48.2,30.02,SSE,168,0.0,0.0,64,0.00,,SCT110,0.00,VWS V14.01,2013-04-23 05:12:00,
2013-04-23 00:17:00,60.4,48.2,30.02,SSE,168,0.0,0.0,64,0.00,,SCT110,0.00,VWS V14.01,2013-04-23 05:17:00,
2013-04-23 00:22:00,60.3,48.1,30.02,SSE,168,0.0,0.0,64,0.00,,CLR,0.00,VWS V14.01,2013-04-23 05:22:00,
2013-04-23 00:27:00,60.2,48.4,30.02,SSE,168,0.0,0.0,65,0.00,,CLR,0.00,VWS V14.01,2013-04-23 05:27:00,
2013-04-23 00:32:00,60.2,48.0,30.03,SSE,168,0.0,0.0,64,0.00,,CLR,0.00,VWS V14.01,2013-04-23 05:32:00,
2013-04-23 00:37:00,59.9,48.5,30.02,SSE,168,0.0,0.0,66,0.00,,CLR,0.00,VWS V14.01,2013-04-23 05:37:00,
2013-04-23 00:42:00,59.6,48.2,30.02,SSE,168,0.0,0.0,66,0.00,,CLR,0.00,VWS V14.01,2013-04-23 05:42:00,
2013-04-23 00:47:00,59.4,48.5,30.02,SSE,168,0.0,0.0,67,0.00,,CLR,0.00,VWS V14.01,2013-04-23 05:47:00,
2013-04-23 00:52:00,59.3,48.8,30.02,SSE,168,0.0,0.0,68,0.00,,CLR,0.00,VWS V14.01,2013-04-23 05:52:00,
2013-04-23 00:57:00,59.0,48.5,30.02,SSE,168,0.0,0.0,68,0.00,,CLR,0.00,VWS V14.01,2013-04-23 05:57:00,
2013-04-23 01:02:00,58.8,48.3,30.02,SSE,168,0.0,0.0,68,0.00,,,0.00,VWS V14.01,2013-04-23 06:02:00,
2013-04-23 01:07:00,58.5,48.4,30.02,SSE,168,0.0,0.0,69,0.00,,,0.00,VWS V14.01,2013-04-23 06:07:00,
2013-04-23 01:12:00,58.2,48.1,30.02,SSE,168,0.0,0.0,69,0.00,,,0.00,VWS V14.01,2013-04-23 06:12:00,
2013-04-23 01:17:00,58.0,47.9,30.02,SSE,168,0.0,0.0,69,0.00,,,0.00,VWS V14.01,2013-04-23 06:17:00,
2013-04-23 01:22:00,57.7,48.0,30.02,SSE,168,0.0,0.0,70,0.00,,,0.00,VWS V14.01,2013-04-23 06:22:00,
2013-04-23 01:27:00,57.4,47.7,30.02,SSE,168,0.0,0.0,70,0.00,,,0.00,VWS V14.01,2013-04-23 06:27:00,
2013-04-23 01:32:00,57.0,47.7,30.01,SSE,168,0.0,0.0,71,0.00,,,0.00,VWS V14.01,2013-04-23 06:32:00,
2013-04-23 01:37:00,56.6,47.7,30.01,SSE,168,0.0,0.0,72,0.00,,,0.00,VWS V14.01,2013-04-23 06:37:00,
2013-04-23 01:42:00,56.2,47.7,30.00,SSE,168,0.0,0.0,73,0.00,,CLR,0.00,VWS V14.01,2013-04-23 06:42:00,
2013-04-23 01:47:00,55.7,47.5,30.00,SSE,168,0.0,0.0,74,0.00,,CLR,0.00,VWS V14.01,2013-04-23 06:47:00,
2013-04-23 01:52:00,55.5,47.4,30.00,SSE,168,0.0,0.0,74,0.00,,CLR,0.00,VWS V14.01,2013-04-23 06:52:00,
2013-04-23 01:57:00,55.2,47.4,30.00,SSE,168,0.0,0.0,75,0.00,,CLR,0.00,VWS V14.01,2013-04-23 06:57:00,
2013-04-23 02:02:00,55.0,47.6,30.00,SSE,168,0.0,0.0,76,0.00,,CLR,0.00,VWS V14.01,2013-04-23 07:02:00,
2013-04-23 02:07:00,54.9,47.5,30.00,SSE,168,0.0,0.0,76,0.00,,CLR,0.00,VWS V14.01,2013-04-23 07:07:00,
2013-04-23 02:12:00,54.8,47.4,29.99,SSE,168,0.0,0.0,76,0.00,,CLR,0.00,VWS V14.01,2013-04-23 07:12:00,
2013-04-23 02:17:00,54.7,47.6,30.00,SSE,168,0.0,0.0,77,0.00,,CLR,0.00,VWS V14.01,2013-04-23 07:17:00,
2013-04-23 02:22:00,54.6,47.5,30.00,SSE,168,0.0,0.0,77,0.00,,CLR,0.00,VWS V14.01,2013-04-23 07:22:00,
2013-04-23 02:28:00,54.6,47.5,29.99,SSE,168,0.0,0.0,77,0.00,,CLR,0.00,VWS V14.01,2013-04-23 07:28:00,
2013-04-23 02:33:00,54.6,47.5,29.99,SSE,168,0.0,0.0,77,0.00,,CLR,0.00,VWS V14.01,2013-04-23 07:33:00,
2013-04-23 02:38:00,54.5,47.5,30.00,SSE,168,0.0,0.0,77,0.00,,CLR,0.00,VWS V14.01,2013-04-23 07:38:00,
2013-04-23 02:43:00,54.4,47.3,30.00,SSE,168,0.0,0.0,77,0.00,,CLR,0.00,VWS V14.01,2013-04-23 07:43:00,
2013-04-23 02:48:00,54.4,47.3,30.00,SSE,168,0.0,0.0,77,0.00,,CLR,0.00,VWS V14.01,2013-04-23 07:48:00,
2013-04-23 02:53:00,54.3,47.2,30.00,SSE,168,0.0,0.0,77,0.00,,CLR,0.00,VWS V14.01,2013-04-23 07:53:00,
2013-04-23 02:58:00,54.1,47.4,30.00,SSE,168,0.0,0.0,78,0.00,,CLR,0.00,VWS V14.01,2013-04-23 07:58:00,
2013-04-23 03:03:00,54.0,47.3,30.00,SSE,168,0.0,0.0,78,0.00,,CLR,0.00,VWS V14.01,2013-04-23 08:03:00,
2013-04-23 03:08:00,53.8,47.1,30.00,SSE,168,0.0,0.0,78,0.00,,CLR,0.00,VWS V14.01,2013-04-23 08:08:00,
2013-04-23 03:13:00,53.5,47.2,30.00,SSE,168,0.0,0.0,79,0.00,,CLR,0.00,VWS V14.01,2013-04-23 08:13:00,
2013-04-23 03:18:00,53.3,47.0,29.99,SSE,168,0.0,0.0,79,0.00,,CLR,0.00,VWS V14.01,2013-04-23 08:18:00,
2013-04-23 03:23:00,53.2,47.2,29.99,SSE,168,0.0,0.0,80,0.00,,CLR,0.00,VWS V14.01,2013-04-23 08:23:00,
2013-04-23 03:28:00,53.1,47.1,29.99,SSE,168,0.0,0.0,80,0.00,,CLR,0.00,VWS V14.01,2013-04-23 08:28:00,
2013-04-23 03:33:00,52.8,46.8,29.99,SSE,168,0.0,0.0,80,0.00,,CLR,0.00,VWS V14.01,2013-04-23 08:33:00,
2013-04-23 03:38:00,52.6,46.9,29.99,SSE,168,0.0,0.0,81,0.00,,CLR,0.00,VWS V14.01,2013-04-23 08:38:00,
2013-04-23 03:43:00,52.4,46.8,29.99,SSE,168,0.0,0.0,81,0.00,,CLR,0.00,VWS V14.01,2013-04-23 08:43:00,
2013-04-23 03:48:00,52.2,46.5,30.00,SSE,168,0.0,0.0,81,0.00,,CLR,0.00,VWS V14.01,2013-04-23 08:48:00,
2013-04-23 03:53:00,52.0,46.4,30.00,SSE,168,0.0,0.0,81,0.00,,CLR,0.00,VWS V14.01,2013-04-23 08:53:00,
2013-04-23 03:58:00,51.9,46.6,30.00,SSE,168,0.0,0.0,82,0.00,,CLR,0.00,VWS V14.01,2013-04-23 08:58:00,
2013-04-23 04:03:00,51.7,46.7,30.00,SSE,168,0.0,0.0,83,0.00,,SCT110,0.00,VWS V14.01,2013-04-23 09:03:00,
2013-04-23 04:08:00,51.6,46.9,30.00,SSE,168,0.0,0.0,84,0.00,,SCT110,0.00,VWS V14.01,2013-04-23 09:08:00,
2013-04-23 04:13:00,51.6,46.9,30.00,SSE,168,0.0,0.0,84,0.00,,SCT110,0.00,VWS V14.01,2013-04-23 09:13:00,
2013-04-23 04:18:00,51.5,47.2,29.99,SSE,168,0.0,0.0,85,0.00,,SCT110,0.00,VWS V14.01,2013-04-23 09:18:00,
2013-04-23 04:23:00,51.6,47.2,29.99,SSE,168,0.0,0.0,85,0.00,,OVC110,0.00,VWS V14.01,2013-04-23 09:23:00,
2013-04-23 04:28:00,51.6,47.6,29.99,SSE,168,0.0,0.0,86,0.00,,OVC110,0.00,VWS V14.01,2013-04-23 09:28:00,
2013-04-23 04:33:00,51.5,47.5,30.00,SSE,168,0.0,0.0,86,0.00,,OVC110,0.00,VWS V14.01,2013-04-23 09:33:00,
2013-04-23 04:38:00,51.4,47.4,29.99,SSE,168,0.0,0.0,86,0.00,,OVC110,0.00,VWS V14.01,2013-04-23 09:38:00,
2013-04-23 04:43:00,51.4,47.4,29.99,SSE,168,0.0,0.0,86,0.00,,,0.00,VWS V14.01,2013-04-23 09:43:00,
2013-04-23 04:48:00,51.3,47.3,29.99,SSE,168,0.0,0.0,86,0.00,,,0.00,VWS V14.01,2013-04-23 09:48:00,
2013-04-23 04:53:00,51.3,47.3,29.98,SSE,168,0.0,0.0,86,0.00,,,0.00,VWS V14.01,2013-04-23 09:53:00,
2013-04-23 04:59:00,51.3,47.3,29.98,SSE,168,0.0,0.0,86,0.00,,,0.00,VWS V14.01,2013-04-23 09:59:00,
2013-04-23 05:04:00,51.3,47.6,29.97,SSE,168,0.0,0.0,87,0.00,,,0.00,VWS V14.01,2013-04-23 10:04:00,
2013-04-23 05:09:00,51.4,47.7,29.97,SSE,168,0.0,0.0,87,0.00,,,0.00,VWS V14.01,2013-04-23 10:09:00,
2013-04-23 05:14:00,51.4,47.7,29.97,SSE,168,0.0,0.0,87,0.00,,,0.00,VWS V14.01,2013-04-23 10:14:00,
2013-04-23 05:19:00,51.5,47.8,29.98,SSE,168,0.0,0.0,87,0.00,,BKN110,0.00,VWS V14.01,2013-04-23 10:19:00,
2013-04-23 05:24:00,51.6,47.9,29.98,SSE,168,0.0,1.5,87,0.00,,BKN110,0.00,VWS V14.01,2013-04-23 10:24:00,
2013-04-23 05:29:00,51.8,48.1,29.98,SSE,168,0.0,0.0,87,0.00,,BKN110,0.00,VWS V14.01,2013-04-23 10:29:00,
2013-04-23 05:34:00,52.0,48.0,29.97,SSE,168,0.0,3.0,86,0.00,,BKN110,0.00,VWS V14.01,2013-04-23 10:34:00,
2013-04-23 05:39:00,52.2,48.2,29.97,SSE,168,0.0,3.0,86,0.00,,OVC110,0.00,VWS V14.01,2013-04-23 10:39:00,
2013-04-23 05:44:00,52.4,48.0,29.97,SSE,168,0.0,3.0,85,0.00,,OVC110,0.00,VWS V14.01,2013-04-23 10:44:00,
2013-04-23 05:49:00,52.6,48.2,29.97,SSE,168,0.0,3.0,85,0.00,,OVC110,0.00,VWS V14.01,2013-04-23 10:49:00,
2013-04-23 05:54:00,52.8,48.1,29.97,SSE,168,1.5,3.0,84,0.00,,OVC110,0.00,VWS V14.01,2013-04-23 10:54:00,
2013-04-23 05:59:00,53.1,48.1,29.97,SSE,168,0.0,0.0,83,0.00,,OVC110,0.00,VWS V14.01,2013-04-23 10:59:00,
2013-04-23 06:04:00,53.4,48.4,29.97,SSE,168,6.0,7.5,83,0.00,,OVC110,0.00,VWS V14.01,2013-04-23 11:04:00,
2013-04-23 06:09:00,53.8,48.4,29.97,SSE,168,0.0,9.0,82,0.00,,OVC110,0.00,VWS V14.01,2013-04-23 11:09:00,
2013-04-23 06:14:00,54.2,48.5,29.97,SSE,168,0.0,9.0,81,0.00,,OVC110,0.00,VWS V14.01,2013-04-23 11:14:00,
2013-04-23 06:19:00,54.5,48.5,29.97,South,169,0.0,9.0,80,0.00,,BKN110,0.00,VWS V14.01,2013-04-23 11:19:00,
2013-04-23 06:24:00,54.7,48.3,29.97,SSE,167,0.0,9.0,79,0.00,,BKN110,0.00,VWS V14.01,2013-04-23 11:24:00,
2013-04-23 06:29:00,54.9,48.5,29.97,SSE,167,0.0,1.5,79,0.00,,BKN110,0.00,VWS V14.01,2013-04-23 11:29:00,
2013-04-23 06:34:00,55.0,48.6,29.97,SSE,167,0.0,6.0,79,0.00,,BKN110,0.00,VWS V14.01,2013-04-23 11:34:00,
2013-04-23 06:39:00,55.1,48.4,29.97,SSE,167,0.0,6.0,78,0.00,,BKN110,0.00,VWS V14.01,2013-04-23 11:39:00,
2013-04-23 06:44:00,55.2,48.5,29.97,SSE,167,6.0,7.5,78,0.00,,BKN110,0.00,VWS V14.01,2013-04-23 11:44:00,
2013-04-23 06:49:00,55.4,48.7,29.97,SE,142,0.0,10.5,78,0.00,,BKN110,0.00,VWS V14.01,2013-04-23 11:49:00,
2013-04-23 06:54:00,55.5,48.8,29.97,SSE,159,0.0,10.5,78,0.00,,BKN110,0.00,VWS V14.01,2013-04-23 11:54:00,
2013-04-23 06:59:00,55.8,49.0,29.97,South,175,0.0,1.5,78,0.00,,BKN110,0.00,VWS V14.01,2013-04-23 11:59:00,
2013-04-23 07:04:00,56.1,49.0,29.97,SSE,161,6.0,9.0,77,0.00,,BKN110,0.00,VWS V14.01,2013-04-23 12:04:00,
2013-04-23 07:09:00,56.4,49.3,29.97,South,178,9.0,9.0,77,0.00,,BKN110,0.00,VWS V14.01,2013-04-23 12:09:00,
2013-04-23 07:14:00,56.7,49.2,29.97,SSE,164,0.0,10.5,76,0.00,,BKN110,0.00,VWS V14.01,2013-04-23 12:14:00,
2013-04-23 07:20:00,56.9,49.4,29.98,South,169,3.0,10.5,76,0.00,,BKN110,0.00,VWS V14.01,2013-04-23 12:20:00,
2013-04-23 07:24:00,57.2,49.7,29.97,South,169,0.0,10.5,76,0.00,,BKN110,0.00,VWS V14.01,2013-04-23 12:24:00,
2013-04-23 07:30:00,57.4,49.5,29.97,SE,132,9.0,10.5,75,0.00,,BKN110,0.00,VWS V14.01,2013-04-23 12:30:00,
2013-04-23 07:35:00,57.6,49.8,29.97,South,178,1.5,10.5,75,0.00,,BKN110,0.00,VWS V14.01,2013-04-23 12:35:00,
2013-04-23 07:40:00,57.7,49.8,29.97,SSE,155,10.5,10.5,75,0.00,,BKN110,0.00,VWS V14.01,2013-04-23 12:40:00,
2013-04-23 07:45:00,57.8,49.9,29.97,South,173,9.0,10.5,75,0.00,,BKN110,0.00,VWS V14.01,2013-04-23 12:45:00,
2013-04-23 07:50:00,58.0,50.1,29.97,SSE,163,7.5,12.0,75,0.00,,BKN110,0.00,VWS V14.01,2013-04-23 12:50:00,
2013-04-23 07:55:00,58.1,50.2,29.97,South,169,9.0,13.5,75,0.00,,BKN110,0.00,VWS V14.01,2013-04-23 12:55:00,
2013-04-23 08:00:00,58.2,50.3,29.97,South,175,3.0,6.0,75,0.00,,OVC250,0.00,VWS V14.01,2013-04-23 13:00:00,
2013-04-23 08:05:00,58.2,50.3,29.97,South,171,7.5,10.5,75,0.00,,OVC250,0.00,VWS V14.01,2013-04-23 13:05:00,
2013-04-23 08:10:00,58.3,50.4,29.97,SSE,168,3.0,10.5,75,0.00,,OVC250,0.00,VWS V14.01,2013-04-23 13:10:00,
2013-04-23 08:15:00,58.3,50.8,29.97,South,171,1.5,10.5,76,0.00,,OVC250,0.00,VWS V14.01,2013-04-23 13:15:00,
2013-04-23 08:20:00,58.3,50.8,29.97,SSE,165,6.0,10.5,76,0.00,,OVC250,0.00,VWS V14.01,2013-04-23 13:20:00,
2013-04-23 08:25:00,58.4,50.9,29.97,SSE,165,7.5,10.5,76,0.00,,OVC250,0.00,VWS V14.01,2013-04-23 13:25:00,
2013-04-23 08:30:00,58.6,51.4,29.98,South,178,7.5,9.0,77,0.00,,OVC250,0.00,VWS V14.01,2013-04-23 13:30:00,
2013-04-23 08:35:00,58.6,51.4,29.98,South,171,7.5,10.5,77,0.00,,OVC250,0.00,VWS V14.01,2013-04-23 13:35:00,
2013-04-23 08:40:00,58.7,51.5,29.98,South,173,6.0,10.5,77,0.00,,OVC250,0.00,VWS V14.01,2013-04-23 13:40:00,
2013-04-23 08:45:00,58.8,51.6,29.98,SSE,160,1.5,10.5,77,0.00,,OVC250,0.00,VWS V14.01,2013-04-23 13:45:00,
2013-04-23 08:50:00,58.9,51.7,29.98,South,174,6.0,10.5,77,0.00,,OVC250,0.00,VWS V14.01,2013-04-23 13:50:00,
2013-04-23 08:55:00,59.1,51.9,29.98,South,179,6.0,10.5,77,0.00,,OVC250,0.00,VWS V14.01,2013-04-23 13:55:00,
2013-04-23 09:00:00,59.2,52.0,29.98,South,171,1.5,10.5,77,0.00,,OVC110,0.00,VWS V14.01,2013-04-23 14:00:00,
2013-04-23 09:05:00,59.4,52.2,29.97,South,171,3.0,10.5,77,0.00,,OVC110,0.00,VWS V14.01,2013-04-23 14:05:00,
2013-04-23 09:10:00,59.6,52.4,29.97,South,171,6.0,10.5,77,0.00,,OVC110,0.00,VWS V14.01,2013-04-23 14:10:00,
2013-04-23 09:15:00,59.8,52.6,29.97,South,172,0.0,10.5,77,0.00,,OVC110,0.00,VWS V14.01,2013-04-23 14:15:00,
2013-04-23 09:20:00,60.0,52.8,29.97,SSE,161,10.5,13.5,77,0.00,,OVC110,0.00,VWS V14.01,2013-04-23 14:20:00,
2013-04-23 09:25:00,60.2,53.0,29.97,South,173,9.0,13.5,77,0.00,,OVC110,0.00,VWS V14.01,2013-04-23 14:25:00,
2013-04-23 09:30:00,60.4,52.8,29.98,SSE,165,6.0,9.0,76,0.00,,OVC110,0.00,VWS V14.01,2013-04-23 14:30:00,
2013-04-23 09:35:00,60.5,52.9,29.98,South,172,7.5,10.5,76,0.00,,OVC110,0.00,VWS V14.01,2013-04-23 14:35:00,
2013-04-23 09:40:00,60.7,53.1,29.99,South,188,6.0,10.5,76,0.00,,OVC110,0.00,VWS V14.01,2013-04-23 14:40:00,
2013-04-23 09:45:00,60.8,53.2,29.99,South,176,7.5,10.5,76,0.00,,OVC110,0.00,VWS V14.01,2013-04-23 14:45:00,
2013-04-23 09:50:00,60.9,53.3,29.99,South,174,6.0,12.0,76,0.00,,OVC110,0.00,VWS V14.01,2013-04-23 14:50:00,
2013-04-23 09:55:00,61.0,53.4,29.99,South,175,7.5,12.0,76,0.00,,OVC110,0.00,VWS V14.01,2013-04-23 14:55:00,
2013-04-23 10:00:00,61.1,53.5,30.00,SSW,192,4.5,10.5,76,0.00,,OVC110,0.00,VWS V14.01,2013-04-23 15:00:00,
2013-04-23 10:05:00,61.1,53.5,30.00,SSW,192,4.5,10.5,76,0.00,,OVC110,0.00,VWS V14.01,2013-04-23 15:05:00,
2013-04-23 10:10:00,61.1,53.8,30.00,South,173,3.0,10.5,77,0.00,,OVC110,0.00,VWS V14.01,2013-04-23 15:10:00,
2013-04-23 10:15:00,61.1,53.8,30.00,SSE,162,10.5,12.0,77,0.00,,OVC110,0.00,VWS V14.01,2013-04-23 15:15:00,
2013-04-23 10:20:00,61.0,53.8,30.00,South,178,13.5,15.0,77,0.00,,OVC110,0.00,VWS V14.01,2013-04-23 15:20:00,
2013-04-23 10:25:00,61.0,53.8,30.00,SSE,161,7.5,15.0,77,0.00,,OVC110,0.00,VWS V14.01,2013-04-23 15:25:00,
2013-04-23 10:30:00,61.0,54.1,30.00,South,173,7.5,12.0,78,0.00,,OVC110,0.00,VWS V14.01,2013-04-23 15:30:00,
2013-04-23 10:35:00,61.0,54.1,30.00,South,173,9.0,15.0,78,0.00,,OVC110,0.00,VWS V14.01,2013-04-23 15:35:00,
2013-04-23 10:40:00,61.1,54.5,30.00,SSE,165,12.0,16.5,79,0.00,,OVC110,0.00,VWS V14.01,2013-04-23 15:40:00,
2013-04-23 10:45:00,61.0,54.8,30.00,South,177,9.0,16.5,80,0.00,,OVC110,0.00,VWS V14.01,2013-04-23 15:45:00,
2013-04-23 10:50:00,60.9,54.7,30.00,South,175,9.0,16.5,80,0.00,,OVC110,0.00,VWS V14.01,2013-04-23 15:50:00,
2013-04-23 10:55:00,60.9,55.0,30.00,South,184,3.0,16.5,81,0.00,,OVC110,0.00,VWS V14.01,2013-04-23 15:55:00,
2013-04-23 11:00:00,60.8,55.3,30.00,South,191,6.0,12.0,82,0.00,,OVC120,0.00,VWS V14.01,2013-04-23 16:00:00,
2013-04-23 11:05:00,60.8,55.3,30.00,South,172,7.5,12.0,82,0.00,,OVC120,0.00,VWS V14.01,2013-04-23 16:05:00,
2013-04-23 11:10:00,60.8,55.3,30.00,SSW,192,4.5,12.0,82,0.00,,OVC120,0.00,VWS V14.01,2013-04-23 16:10:00,
2013-04-23 11:15:00,60.8,55.3,30.00,South,178,3.0,12.0,82,0.00,,OVC120,0.00,VWS V14.01,2013-04-23 16:15:00,
2013-04-23 11:20:00,60.9,55.4,30.00,SSW,209,0.0,12.0,82,0.00,,OVC120,0.00,VWS V14.01,2013-04-23 16:20:00,
2013-04-23 11:25:00,60.9,55.4,29.99,South,172,7.5,12.0,82,0.00,,OVC120,0.00,VWS V14.01,2013-04-23 16:25:00,
2013-04-23 11:31:00,60.9,55.7,29.98,SSW,192,3.0,9.0,83,0.00,,OVC120,0.00,VWS V14.01,2013-04-23 16:31:00,
2013-04-23 11:36:00,60.8,55.9,29.97,SSE,166,1.5,13.5,84,0.00,,OVC120,0.00,VWS V14.01,2013-04-23 16:36:00,
2013-04-23 11:41:00,60.7,56.2,29.96,South,175,10.5,15.0,85,0.00,,OVC120,0.00,VWS V14.01,2013-04-23 16:41:00,
2013-04-23 11:46:00,60.7,56.2,29.96,South,177,6.0,15.0,85,0.00,,OVC120,0.00,VWS V14.01,2013-04-23 16:46:00,
2013-04-23 11:51:00,60.7,56.5,29.96,SSE,157,9.0,15.0,86,0.00,,OVC120,0.00,VWS V14.01,2013-04-23 16:51:00,
2013-04-23 11:56:00,60.9,56.7,29.95,South,180,10.5,15.0,86,0.00,,OVC120,0.00,VWS V14.01,2013-04-23 16:56:00,
2013-04-23 12:01:00,61.0,56.8,29.94,SSE,155,10.5,10.5,86,0.00,,OVC120,0.00,VWS V14.01,2013-04-23 17:01:00,
2013-04-23 12:06:00,61.1,56.9,29.92,SSE,158,13.5,15.0,86,0.00,,-RA,0.00,VWS V14.01,2013-04-23 17:06:00,
2013-04-23 12:11:00,61.1,56.9,29.92,SSE,167,1.5,15.0,86,0.00,,-RA,0.00,VWS V14.01,2013-04-23 17:11:00,
2013-04-23 12:16:00,61.1,57.2,29.93,South,178,3.0,15.0,87,0.00,,-RA,0.00,VWS V14.01,2013-04-23 17:16:00,
2013-04-23 12:21:00,61.1,57.2,29.92,SSE,168,3.0,15.0,87,0.00,,-RA,0.00,VWS V14.01,2013-04-23 17:21:00,
2013-04-23 12:26:00,61.3,58.0,29.92,SSE,160,7.5,15.0,89,0.00,,-RA,0.00,VWS V14.01,2013-04-23 17:26:00,
2013-04-23 12:31:00,61.3,57.4,29.93,South,182,6.0,10.5,87,0.00,,-RA,0.00,VWS V14.01,2013-04-23 17:31:00,
2013-04-23 12:36:00,61.3,57.4,29.93,South,177,9.0,12.0,87,0.00,,-RA,0.00,VWS V14.01,2013-04-23 17:36:00,
2013-04-23 12:41:00,61.2,57.3,29.94,SW,214,6.0,12.0,87,0.00,,-RA,0.00,VWS V14.01,2013-04-23 17:41:00,
2013-04-23 12:46:00,61.2,57.3,29.94,SW,221,1.5,12.0,87,0.01,,-RA,0.01,VWS V14.01,2013-04-23 17:46:00,
2013-04-23 12:51:00,61.1,57.5,29.91,SSE,161,1.5,12.0,88,0.01,,-RA,0.01,VWS V14.01,2013-04-23 17:51:00,
2013-04-23 12:56:00,61.0,57.7,29.92,South,182,9.0,12.0,89,0.02,,-RA,0.02,VWS V14.01,2013-04-23 17:56:00,
2013-04-23 13:01:00,60.7,57.4,29.91,South,183,6.0,13.5,89,0.02,,-RA,0.02,VWS V14.01,2013-04-23 18:01:00,
2013-04-23 13:06:00,60.6,57.7,29.91,South,186,7.5,13.5,90,0.03,,OVC120,0.03,VWS V14.01,2013-04-23 18:06:00,
2013-04-23 13:11:00,60.6,57.7,29.91,SSE,168,9.0,13.5,90,0.03,,OVC120,0.03,VWS V14.01,2013-04-23 18:11:00,
2013-04-23 13:16:00,60.5,57.6,29.91,South,188,6.0,16.5,90,0.03,,OVC120,0.03,VWS V14.01,2013-04-23 18:16:00,
2013-04-23 13:21:00,60.5,57.9,29.91,South,172,7.5,16.5,91,0.03,,OVC120,0.03,VWS V14.01,2013-04-23 18:21:00,
2013-04-23 13:26:00,60.6,58.0,29.90,SSE,166,10.5,18.0,91,0.03,,OVC120,0.03,VWS V14.01,2013-04-23 18:26:00,
2013-04-23 13:31:00,60.7,58.1,29.89,South,169,16.5,16.5,91,0.03,,OVC120,0.03,VWS V14.01,2013-04-23 18:31:00,
2013-04-23 13:36:00,61.1,58.5,29.89,SSE,153,10.5,18.0,91,0.03,,OVC120,0.03,VWS V14.01,2013-04-23 18:36:00,
2013-04-23 13:41:00,61.6,59.0,29.89,South,171,13.5,18.0,91,0.03,,OVC120,0.03,VWS V14.01,2013-04-23 18:41:00,
2013-04-23 13:46:00,62.3,59.6,29.88,South,190,12.0,18.0,91,0.03,,OVC120,0.03,VWS V14.01,2013-04-23 18:46:00,
2013-04-23 13:51:00,62.9,59.9,29.88,South,171,12.0,19.5,90,0.03,,OVC120,0.03,VWS V14.01,2013-04-23 18:51:00,
2013-04-23 13:56:00,63.5,60.2,29.88,South,183,9.0,24.0,89,0.03,,OVC120,0.03,VWS V14.01,2013-04-23 18:56:00,
2013-04-23 14:01:00,64.0,60.4,29.88,South,189,9.0,15.0,88,0.01,,OVC120,0.03,VWS V14.01,2013-04-23 19:01:00,
2013-04-23 14:06:00,64.7,60.8,29.88,ESE,102,10.5,24.0,87,0.01,,OVC120,0.03,VWS V14.01,2013-04-23 19:06:00,
2013-04-23 14:11:00,65.2,60.6,29.88,South,175,15.0,24.0,85,0.01,,BKN120,0.03,VWS V14.01,2013-04-23 19:11:00,
2013-04-23 14:16:00,65.7,60.7,29.88,SSE,165,18.0,27.0,84,0.01,,BKN120,0.03,VWS V14.01,2013-04-23 19:16:00,
2013-04-23 14:21:00,66.4,61.1,29.87,South,188,9.0,27.0,83,0.01,,BKN120,0.03,VWS V14.01,2013-04-23 19:21:00,
2013-04-23 14:26:00,67.3,61.6,29.87,SW,217,13.5,27.0,82,0.01,,BKN120,0.03,VWS V14.01,2013-04-23 19:26:00,
2013-04-23 14:31:00,67.7,61.0,29.87,SSW,192,19.5,24.0,79,0.00,,BKN120,0.03,VWS V14.01,2013-04-23 19:31:00,
2013-04-23 14:36:00,67.6,60.9,29.87,SSE,157,15.0,24.0,79,0.00,,BKN120,0.03,VWS V14.01,2013-04-23 19:36:00,
2013-04-23 14:41:00,67.6,60.5,29.86,SSE,164,9.0,24.0,78,0.00,,BKN120,0.03,VWS V14.01,2013-04-23 19:41:00,
2013-04-23 14:46:00,67.9,60.8,29.86,South,182,13.5,24.0,78,0.00,,BKN120,0.03,VWS V14.01,2013-04-23 19:46:00,
2013-04-23 14:51:00,68.1,60.3,29.86,SW,220,13.5,28.5,76,0.00,,BKN120,0.03,VWS V14.01,2013-04-23 19:51:00,
2013-04-23 14:56:00,68.3,60.8,29.86,South,185,10.5,28.5,77,0.00,,BKN120,0.03,VWS V14.01,2013-04-23 19:56:00,
2013-04-23 15:01:00,68.6,60.4,29.85,South,189,16.5,27.0,75,0.00,,BKN120,0.03,VWS V14.01,2013-04-23 20:01:00,
2013-04-23 15:06:00,68.7,60.5,29.85,SSE,152,10.5,27.0,75,0.00,,BKN120,0.03,VWS V14.01,2013-04-23 20:06:00,
2013-04-23 15:11:00,69.0,60.8,29.85,South,172,10.5,27.0,75,0.00,,BKN120,0.03,VWS V14.01,2013-04-23 20:11:00,
2013-04-23 15:16:00,69.0,60.0,29.85,South,176,18.0,34.5,73,0.00,,BKN120,0.03,VWS V14.01,2013-04-23 20:16:00,
2013-04-23 15:21:00,69.1,60.1,29.84,SSW,192,10.5,34.5,73,0.00,,BKN120,0.03,VWS V14.01,2013-04-23 20:21:00,
2013-04-23 15:26:00,69.2,60.2,29.84,SSE,165,12.0,34.5,73,0.00,,BKN120,0.03,VWS V14.01,2013-04-23 20:26:00,
2013-04-23 15:31:00,69.2,60.2,29.84,South,178,16.5,16.5,73,0.00,,BKN120,0.03,VWS V14.01,2013-04-23 20:31:00,
2013-04-23 15:36:00,69.2,60.2,29.84,SSW,205,10.5,21.0,73,0.00,,BKN120,0.03,VWS V14.01,2013-04-23 20:36:00,
2013-04-23 15:41:00,69.2,59.4,29.83,SSW,197,19.5,27.0,71,0.00,,BKN120,0.03,VWS V14.01,2013-04-23 20:41:00,
2013-04-23 15:46:00,69.4,59.6,29.83,SSE,154,12.0,30.0,71,0.00,,BKN120,0.03,VWS V14.01,2013-04-23 20:46:00,
2013-04-23 15:52:00,69.5,59.3,29.83,SSW,206,15.0,30.0,70,0.00,,BKN120,0.03,VWS V14.01,2013-04-23 20:52:00,
2013-04-23 15:57:00,69.6,59.0,29.82,SSW,197,18.0,30.0,69,0.00,,BKN120,0.03,VWS V14.01,2013-04-23 20:57:00,
2013-04-23 16:02:00,69.7,58.7,29.82,South,180,7.5,19.5,68,0.00,,BKN120,0.03,VWS V14.01,2013-04-23 21:02:00,
2013-04-23 16:07:00,69.7,58.7,29.82,WNW,303,18.0,31.5,68,0.00,,BKN095,0.03,VWS V14.01,2013-04-23 21:07:00,
2013-04-23 16:12:00,69.7,58.7,29.81,NE,46,7.5,31.5,68,0.00,,BKN095,0.03,VWS V14.01,2013-04-23 21:12:00,
2013-04-23 16:17:00,69.7,58.3,29.81,South,180,15.0,31.5,67,0.00,,BKN095,0.03,VWS V14.01,2013-04-23 21:17:00,
2013-04-23 16:22:00,69.7,58.7,29.81,SSW,192,12.0,31.5,68,0.00,,BKN095,0.03,VWS V14.01,2013-04-23 21:22:00,
2013-04-23 16:27:00,69.6,59.4,29.81,SSW,198,7.5,31.5,70,0.00,,BKN095,0.03,VWS V14.01,2013-04-23 21:27:00,
2013-04-23 16:32:00,69.3,59.5,29.81,South,185,9.0,19.5,71,0.00,,BKN095,0.03,VWS V14.01,2013-04-23 21:32:00,
2013-04-23 16:37:00,69.1,58.9,29.81,SW,226,18.0,21.0,70,0.00,,BKN095,0.03,VWS V14.01,2013-04-23 21:37:00,
2013-04-23 16:42:00,68.9,58.7,29.81,SW,227,18.0,21.0,70,0.00,,BKN095,0.03,VWS V14.01,2013-04-23 21:42:00,
2013-04-23 16:47:00,68.8,58.6,29.81,SSE,166,21.0,25.5,70,0.00,,BKN095,0.03,VWS V14.01,2013-04-23 21:47:00,
2013-04-23 16:52:00,68.8,58.6,29.81,SW,231,16.5,25.5,70,0.00,,BKN095,0.03,VWS V14.01,2013-04-23 21:52:00,
2013-04-23 16:57:00,68.8,58.6,29.81,South,185,10.5,25.5,70,0.00,,BKN095,0.03,VWS V14.01,2013-04-23 21:57:00,
2013-04-23 17:02:00,68.8,59.0,29.80,SSW,198,10.5,21.0,71,0.00,,OVC050,0.03,VWS V14.01,2013-04-23 22:02:00,
2013-04-23 17:07:00,68.8,58.6,29.80,SSW,192,19.5,21.0,70,0.00,,OVC050,0.03,VWS V14.01,2013-04-23 22:07:00,
2013-04-23 17:12:00,68.8,58.6,29.80,SSW,202,15.0,30.0,70,0.00,,OVC050,0.03,VWS V14.01,2013-04-23 22:12:00,
2013-04-23 17:17:00,68.8,58.6,29.80,SSW,194,7.5,30.0,70,0.00,,OVC050,0.03,VWS V14.01,2013-04-23 22:17:00,
2013-04-23 17:22:00,68.7,58.9,29.80,SSE,166,9.0,30.0,71,0.00,,OVC050,0.03,VWS V14.01,2013-04-23 22:22:00,
2013-04-23 17:27:00,68.7,58.9,29.80,SSE,159,12.0,30.0,71,0.00,,OVC050,0.03,VWS V14.01,2013-04-23 22:27:00,
2013-04-23 17:32:00,68.6,58.8,29.80,SSW,197,13.5,22.5,71,0.00,,OVC050,0.03,VWS V14.01,2013-04-23 22:32:00,
2013-04-23 17:37:00,68.6,58.8,29.80,SSW,192,9.0,22.5,71,0.00,,OVC050,0.03,VWS V14.01,2013-04-23 22:37:00,
2013-04-23 17:42:00,68.6,59.2,29.80,South,182,9.0,22.5,72,0.00,,OVC050,0.03,VWS V14.01,2013-04-23 22:42:00,
2013-04-23 17:47:00,68.6,59.2,29.79,South,178,16.5,22.5,72,0.00,,OVC050,0.03,VWS V14.01,2013-04-23 22:47:00,
2013-04-23 17:52:00,68.5,59.1,29.79,SSW,197,18.0,22.5,72,0.00,,OVC050,0.03,VWS V14.01,2013-04-23 22:52:00,
2013-04-23 17:57:00,68.5,59.1,29.79,South,180,13.5,22.5,72,0.00,,OVC050,0.03,VWS V14.01,2013-04-23 22:57:00,
2013-04-23 18:02:00,68.5,59.1,29.79,SSE,152,10.5,21.0,72,0.00,,OVC050,0.03,VWS V14.01,2013-04-23 23:02:00,
2013-04-23 18:07:00,68.5,59.1,29.79,South,180,15.0,25.5,72,0.00,,OVC060,0.03,VWS V14.01,2013-04-23 23:07:00,
2013-04-23 18:12:00,68.5,59.1,29.79,South,171,9.0,25.5,72,0.00,,OVC060,0.03,VWS V14.01,2013-04-23 23:12:00,
2013-04-23 18:17:00,68.4,59.0,29.79,SSW,194,10.5,25.5,72,0.00,,OVC060,0.03,VWS V14.01,2013-04-23 23:17:00,
2013-04-23 18:22:00,68.4,58.6,29.79,South,188,13.5,28.5,71,0.00,,OVC060,0.03,VWS V14.01,2013-04-23 23:22:00,
2013-04-23 18:27:00,68.4,59.0,29.79,South,178,7.5,28.5,72,0.00,,OVC060,0.03,VWS V14.01,2013-04-23 23:27:00,
2013-04-23 18:32:00,68.3,58.9,29.79,SSE,164,9.0,19.5,72,0.00,,OVC060,0.03,VWS V14.01,2013-04-23 23:32:00,
2013-04-23 18:38:00,68.3,58.9,29.79,South,174,12.0,19.5,72,0.00,,OVC060,0.03,VWS V14.01,2013-04-23 23:38:00,
2013-04-23 18:43:00,68.3,58.9,29.79,South,189,10.5,19.5,72,0.00,,OVC060,0.03,VWS V14.01,2013-04-23 23:43:00,
2013-04-23 18:48:00,68.2,58.8,29.78,South,171,7.5,19.5,72,0.00,,OVC060,0.03,VWS V14.01,2013-04-23 23:48:00,
2013-04-23 18:53:00,68.3,58.5,29.78,SSW,194,12.0,27.0,71,0.00,,OVC060,0.03,VWS V14.01,2013-04-23 23:53:00,
2013-04-23 18:58:00,68.4,59.0,29.78,SSE,165,9.0,27.0,72,0.00,,OVC060,0.03,VWS V14.01,2013-04-23 23:58:00,
2013-04-23 19:03:00,68.4,58.6,29.78,South,179,10.5,21.0,71,0.00,,OVC060,0.03,VWS V14.01,2013-04-24 00:03:00,
2013-04-23 19:08:00,68.5,58.7,29.78,SW,216,12.0,24.0,71,0.00,,OVC060,0.03,VWS V14.01,2013-04-24 00:08:00,
2013-04-23 19:13:00,68.4,58.6,29.78,SSW,198,18.0,24.0,71,0.00,,OVC060,0.03,VWS V14.01,2013-04-24 00:13:00,
2013-04-23 19:18:00,68.5,58.7,29.78,SSW,193,13.5,24.0,71,0.00,,OVC060,0.03,VWS V14.01,2013-04-24 00:18:00,
2013-04-23 19:23:00,68.4,58.6,29.78,SSW,194,10.5,24.0,71,0.00,,OVC060,0.03,VWS V14.01,2013-04-24 00:23:00,
2013-04-23 19:28:00,68.4,58.6,29.78,South,178,12.0,24.0,71,0.00,,OVC060,0.03,VWS V14.01,2013-04-24 00:28:00,
2013-04-23 19:33:00,68.4,59.0,29.78,SSW,196,7.5,24.0,72,0.00,,OVC060,0.03,VWS V14.01,2013-04-24 00:33:00,
2013-04-23 19:38:00,68.4,59.0,29.78,South,186,13.5,24.0,72,0.00,,OVC060,0.03,VWS V14.01,2013-04-24 00:38:00,
2013-04-23 19:43:00,68.3,58.9,29.78,WSW,246,10.5,24.0,72,0.00,,OVC060,0.03,VWS V14.01,2013-04-24 00:43:00,
2013-04-23 19:48:00,68.3,58.9,29.78,SW,219,12.0,24.0,72,0.00,,OVC060,0.03,VWS V14.01,2013-04-24 00:48:00,
2013-04-23 19:53:00,68.1,59.1,29.79,SSW,207,9.0,24.0,73,0.00,,OVC060,0.03,VWS V14.01,2013-04-24 00:53:00,
2013-04-23 19:58:00,66.2,56.1,29.81,West,279,22.5,24.0,70,0.00,,OVC060,0.03,VWS V14.01,2013-04-24 00:58:00,
2013-04-23 20:03:00,59.9,53.4,29.82,NW,325,7.5,18.0,79,0.00,,-RA,0.03,VWS V14.01,2013-04-24 01:03:00,
2013-04-23 20:08:00,55.9,50.5,29.82,NNW,330,16.5,24.0,82,0.01,,-RA,0.04,VWS V14.01,2013-04-24 01:08:00,
2013-04-23 20:13:00,53.7,49.6,29.83,WNW,301,12.0,24.0,86,0.02,,-RA,0.05,VWS V14.01,2013-04-24 01:13:00,
2013-04-23 20:18:00,52.6,49.2,29.85,NW,317,7.5,24.0,88,0.03,,-RA,0.06,VWS V14.01,2013-04-24 01:18:00,
2013-04-23 20:23:00,51.7,48.6,29.85,NW,313,10.5,24.0,89,0.04,,OVC060,0.07,VWS V14.01,2013-04-24 01:23:00,
2013-04-23 20:28:00,50.9,48.1,29.85,NW,325,9.0,24.0,90,0.04,,OVC060,0.07,VWS V14.01,2013-04-24 01:28:00,
2013-04-23 20:33:00,50.2,47.4,29.86,WNW,297,10.5,16.5,90,0.05,,OVC060,0.08,VWS V14.01,2013-04-24 01:33:00,
2013-04-23 20:38:00,49.6,47.1,29.86,WNW,286,9.0,21.0,91,0.06,,OVC060,0.09,VWS V14.01,2013-04-24 01:38:00,
2013-04-23 20:43:00,49.0,46.5,29.87,NNW,334,15.0,21.0,91,0.07,, +RA,0.10,VWS V14.01,2013-04-24 01:43:00,
2013-04-23 20:48:00,48.5,46.0,29.87,NNW,333,12.0,22.5,91,0.07,, +RA,0.10,VWS V14.01,2013-04-24 01:48:00,
2013-04-23 20:53:00,47.9,45.4,29.88,WNW,302,9.0,22.5,91,0.07,, +RA,0.10,VWS V14.01,2013-04-24 01:53:00,
2013-04-23 20:58:00,47.3,44.8,29.88,NNW,331,10.5,22.5,91,0.07,, +RA,0.10,VWS V14.01,2013-04-24 01:58:00,
2013-04-23 21:03:00,47.0,44.5,29.89,NNW,336,7.5,13.5,91,0.07,,-RA,0.10,VWS V14.01,2013-04-24 02:03:00,
2013-04-23 21:08:00,46.9,44.4,29.88,NNW,345,9.0,13.5,91,0.07,,-RA,0.10,VWS V14.01,2013-04-24 02:08:00,
2013-04-23 21:13:00,46.8,44.3,29.89,NNW,335,9.0,13.5,91,0.07,,-RA,0.10,VWS V14.01,2013-04-24 02:13:00,
2013-04-23 21:18:00,46.5,44.0,29.89,WNW,297,9.0,13.5,91,0.07,,-RA,0.10,VWS V14.01,2013-04-24 02:18:00,
2013-04-23 21:23:00,46.2,43.7,29.90,NW,318,9.0,13.5,91,0.07,,RA,0.10,VWS V14.01,2013-04-24 02:23:00,
2013-04-23 21:28:00,46.0,43.5,29.89,NNW,343,7.5,13.5,91,0.07,,RA,0.10,VWS V14.01,2013-04-24 02:28:00,
2013-04-23 21:33:00,45.9,43.4,29.91,NW,316,9.0,13.5,91,0.02,,RA,0.10,VWS V14.01,2013-04-24 02:33:00,
2013-04-23 21:38:00,45.8,43.3,29.91,NW,321,9.0,13.5,91,0.02,,RA,0.10,VWS V14.01,2013-04-24 02:38:00,
2013-04-23 21:43:00,45.8,43.6,29.92,NW,307,9.0,13.5,92,0.02,,-RA,0.10,VWS V14.01,2013-04-24 02:43:00,
2013-04-23 21:48:00,45.8,43.6,29.93,WNW,300,7.5,16.5,92,0.02,,-RA,0.10,VWS V14.01,2013-04-24 02:48:00,
2013-04-23 21:53:00,45.7,43.2,29.92,NW,314,6.0,16.5,91,0.02,,-RA,0.10,VWS V14.01,2013-04-24 02:53:00,
2013-04-23 21:58:00,45.7,43.5,29.92,NNW,339,10.5,16.5,92,0.02,,-RA,0.10,VWS V14.01,2013-04-24 02:58:00,
2013-04-23 22:03:00,45.7,43.5,29.92,NW,317,9.0,9.0,92,0.00,,OVC015,0.10,VWS V14.01,2013-04-24 03:03:00,
2013-04-23 22:09:00,45.4,42.9,29.93,NNW,340,9.0,13.5,91,0.00,,OVC015,0.10,VWS V14.01,2013-04-24 03:09:00,
2013-04-23 22:14:00,45.2,42.7,29.92,NNW,334,10.5,13.5,91,0.00,,OVC015,0.10,VWS V14.01,2013-04-24 03:14:00,
2013-04-23 22:20:00,45.0,42.5,29.92,NW,315,7.5,13.5,91,0.00,,OVC008,0.10,VWS V14.01,2013-04-24 03:20:00,
2013-04-23 22:25:00,44.9,42.4,29.93,NW,319,9.0,13.5,91,0.00,,OVC008,0.10,VWS V14.01,2013-04-24 03:25:00,
2013-04-23 22:30:00,44.8,42.3,29.93,NW,325,3.0,7.5,91,0.00,,OVC008,0.10,VWS V14.01,2013-04-24 03:30:00,
2013-04-23 22:35:00,44.7,42.5,29.94,NW,309,6.0,9.0,92,0.00,,OVC008,0.10,VWS V14.01,2013-04-24 03:35:00,
2013-04-23 22:40:00,44.6,42.4,29.93,NW,311,0.0,10.5,92,0.00,,OVC010,0.10,VWS V14.01,2013-04-24 03:40:00,
2013-04-23 22:45:00,44.6,42.4,29.92,NNW,335,0.0,13.5,92,0.00,,OVC010,0.10,VWS V14.01,2013-04-24 03:45:00,
2013-04-23 22:50:00,44.6,42.4,29.93,NNW,331,10.5,13.5,92,0.00,,OVC010,0.10,VWS V14.01,2013-04-24 03:50:00,
2013-04-23 22:55:00,44.6,42.4,29.94,NW,311,9.0,13.5,92,0.00,,OVC010,0.10,VWS V14.01,2013-04-24 03:55:00,
2013-04-23 23:00:00,44.6,42.4,29.93,NW,323,3.0,7.5,92,0.01,,OVC010,0.11,VWS V14.01,2013-04-24 04:00:00,
2013-04-23 23:01:00,44.5,42.3,29.93,NW,323,0.0,7.5,92,0.01,,OVC010,0.11,VWS V14.01,2013-04-24 04:01:00,
2013-04-23 23:06:00,44.4,42.2,29.93,NNW,333,7.5,12.0,92,0.01,,OVC012,0.11,VWS V14.01,2013-04-24 04:06:00,
2013-04-23 23:11:00,44.4,42.2,29.92,NNW,327,6.0,13.5,92,0.01,,OVC012,0.11,VWS V14.01,2013-04-24 04:11:00,
2013-04-23 23:16:00,44.3,42.1,29.93,NNW,330,6.0,13.5,92,0.01,,OVC012,0.11,VWS V14.01,2013-04-24 04:16:00,
2013-04-23 23:21:00,44.4,42.2,29.93,NW,311,3.0,13.5,92,0.01,,OVC007,0.11,VWS V14.01,2013-04-24 04:21:00,
2013-04-23 23:26:00,44.3,42.1,29.93,WNW,303,1.5,13.5,92,0.01,,OVC007,0.11,VWS V14.01,2013-04-24 04:26:00,
2013-04-23 23:31:00,44.2,42.0,29.94,NW,314,7.5,12.0,92,0.01,,OVC007,0.11,VWS V14.01,2013-04-24 04:31:00,
2013-04-23 23:36:00,44.2,42.3,29.95,NW,306,7.5,12.0,93,0.01,,OVC007,0.11,VWS V14.01,2013-04-24 04:36:00,
2013-04-23 23:42:00,44.0,41.8,29.95,NW,314,19.5,21.0,92,0.01,,OVC007,0.11,VWS V14.01,2013-04-24 04:42:00,
2013-04-23 23:47:00,43.8,41.6,29.95,WNW,301,6.0,21.0,92,0.01,,OVC007,0.11,VWS V14.01,2013-04-24 04:47:00,
2013-04-23 23:52:00,43.7,41.8,29.94,WNW,302,7.5,21.0,93,0.03,,OVC007,0.13,VWS V14.01,2013-04-24 04:52:00,
2013-04-23 23:57:00,43.7,41.8,29.95,WNW,303,1.5,21.0,93,0.04,,OVC007,0.14,VWS V14.01,2013-04-24 04:57:00,